Weather History for Wildwood, NJ

Change the Weather History Date:

Sunday, February 24, 2013

  Actual Average Record
Temperature  
Mean Temperature 40 °F -  
Max Temperature 46 °F 43 °F 53 °F (2012)
Min Temperature 35 °F 31 °F 21 °F (2009)
Degree Days  
Heating Degree Days 24    
Moisture  
Dew Point 32 °F    
Average Humidity 72    
Maximum Humidity 93    
Minimum Humidity 49    
Precipitation  
Precipitation 0.00 in - - ()
Sea Level Pressure  
Sea Level Pressure 29.86 in    
Wind  
Wind Speed 9 mph (NW)    
Max Wind Speed 15 mph    
Max Gust Speed 26 mph    
Visibility 8 miles    
Events      
Averages and records for this station are not official NWS values.
T = Trace of Precipitation, MM = Missing Value Source: NWS Daily Summary

Daily Weather History Graph

Daily Weather History Graph

Search for Another Location

Airport:

Trip Planner

Search our weather history database for the weather conditions in past years. The results will help you decide how hot, cold, wet, or windy it might be!

Date:

Astronomy

Feb. 24, 2013 Rise Set
Actual Time 6:38 AM EST 5:47 PM EST
Civil Twilight 6:12 AM EST 6:14 PM EST
Nautical Twilight 5:41 AM EST 6:45 PM EST
Astronomical Twilight 5:10 AM EST 7:16 PM EST
Moon 4:55 PM EST (2/24) 5:34 AM EST (2/24)
Length of Visible Light 12h 02m
Length of Day
11h 08m
Waxing Gibbous, 99% of the Moon is Illuminated
Feb 24
Waxing Gibbous
Feb 25
Full
Mar 4
Last Quarter
Mar 11
New
Mar 19
First Quarter

Hourly Weather History & Observations

Time (EST) Temp. Windchill Dew Point Humidity Pressure Visibility Wind Dir Wind Speed Gust Speed Precip Events Conditions
12:15 AM 42.8 °F 41.1 °F 39.2 °F 87% 29.79 in 3.0 mi NNW 3.5 mph - N/A   Overcast
12:35 AM 42.8 °F 38.6 °F 39.2 °F 87% 29.78 in 2.5 mi NNW 6.9 mph - N/A   Overcast
12:55 AM 41.0 °F 35.8 °F 37.4 °F 87% 29.78 in 2.0 mi NNW 8.1 mph - N/A   Overcast
1:15 AM 41.0 °F 35.8 °F 37.4 °F 87% 29.79 in 2.0 mi NNW 8.1 mph - N/A   Overcast
1:35 AM 41.0 °F 35.8 °F 37.4 °F 87% 29.79 in 2.0 mi NNW 8.1 mph - N/A   Overcast
1:55 AM 39.2 °F 34.2 °F 37.4 °F 93% 29.79 in 2.5 mi NNW 6.9 mph - N/A   Overcast
2:15 AM 39.2 °F 33.6 °F 37.4 °F 93% 29.78 in 2.5 mi NNW 8.1 mph - N/A   Overcast
2:35 AM 39.2 °F 33.0 °F 37.4 °F 93% 29.76 in 5.0 mi North 9.2 mph - N/A   Overcast
2:55 AM 39.2 °F 34.2 °F 37.4 °F 93% 29.76 in 10.0 mi NNW 6.9 mph - N/A   Overcast
3:15 AM 39.2 °F 32.5 °F 35.6 °F 87% 29.77 in 10.0 mi NNW 10.4 mph - N/A   Overcast
3:35 AM 39.2 °F 33.6 °F 35.6 °F 87% 29.76 in 10.0 mi NNW 8.1 mph - N/A   Overcast
3:55 AM 39.2 °F 33.6 °F 35.6 °F 87% 29.78 in 10.0 mi NNW 8.1 mph - N/A   Overcast
4:15 AM 37.4 °F 32.1 °F 35.6 °F 93% 29.77 in 5.0 mi North 6.9 mph - N/A   Overcast
4:35 AM 39.2 °F 35.9 °F 35.6 °F 87% 29.77 in 2.0 mi North 4.6 mph - N/A   Overcast
4:55 AM 37.4 °F 32.1 °F 35.6 °F 93% 29.77 in 1.5 mi NNW 6.9 mph - N/A   Overcast
5:15 AM 37.4 °F 32.1 °F 35.6 °F 93% 29.77 in 3.0 mi North 6.9 mph - N/A   Overcast
5:35 AM 37.4 °F 33.8 °F 35.6 °F 93% 29.78 in 7.0 mi NNW 4.6 mph - N/A   Overcast
5:55 AM 37.4 °F 32.8 °F 35.6 °F 93% 29.78 in 7.0 mi NNW 5.8 mph - N/A   Overcast
6:15 AM 37.4 °F 33.8 °F 35.6 °F 93% 29.78 in 4.0 mi NW 4.6 mph - N/A   Overcast
6:35 AM 37.4 °F 33.8 °F 35.6 °F 93% 29.78 in 5.0 mi NW 4.6 mph - N/A   Overcast
6:55 AM 37.4 °F 32.1 °F 35.6 °F 93% 29.80 in 6.0 mi NW 6.9 mph - N/A   Overcast
7:15 AM 37.4 °F 32.1 °F 35.6 °F 93% 29.81 in 8.0 mi NW 6.9 mph - N/A   Overcast
7:35 AM 37.4 °F 32.8 °F 35.6 °F 93% 29.82 in 7.0 mi WNW 5.8 mph - N/A   Overcast
8:15 AM 39.2 °F 35.0 °F 35.6 °F 87% 29.83 in 7.0 mi WNW 5.8 mph - N/A   Overcast
8:35 AM 39.2 °F 33.0 °F 37.4 °F 93% 29.84 in 10.0 mi West 9.2 mph - N/A   Overcast
8:55 AM 39.2 °F 32.5 °F 35.6 °F 87% 29.84 in 9.0 mi West 10.4 mph - N/A   Overcast
9:15 AM 39.2 °F 33.6 °F 37.4 °F 93% 29.85 in 9.0 mi WNW 8.1 mph - N/A   Overcast
9:35 AM 39.2 °F 33.6 °F 37.4 °F 93% 29.84 in 10.0 mi WNW 8.1 mph - N/A   Overcast
9:55 AM 41.0 °F 35.8 °F 37.4 °F 87% 29.83 in 10.0 mi WNW 8.1 mph - N/A   Overcast
10:15 AM 42.8 °F 37.5 °F 37.4 °F 81% 29.83 in 10.0 mi WNW 9.2 mph - N/A   Mostly Cloudy
10:35 AM 42.8 °F 36.6 °F 37.4 °F 81% 29.84 in 10.0 mi WNW 11.5 mph 16.1 mph N/A   Partly Cloudy
10:55 AM 42.8 °F 36.2 °F 39.2 °F 87% 29.84 in 10.0 mi West 12.7 mph 17.3 mph N/A   Clear
11:15 AM 44.6 °F 38.1 °F 39.2 °F 81% 29.85 in 8.0 mi West 13.8 mph 21.9 mph N/A   Clear
11:35 AM 44.6 °F 37.8 °F 39.2 °F 81% 29.85 in 8.0 mi WNW 15.0 mph 19.6 mph N/A   Clear
11:55 AM 46.4 °F 40.1 °F 37.4 °F 71% 29.84 in 10.0 mi West 15.0 mph 21.9 mph N/A   Clear
12:15 PM 46.4 °F 40.4 °F 37.4 °F 71% 29.83 in 10.0 mi WNW 13.8 mph 21.9 mph N/A   Clear
12:35 PM 46.4 °F 41.1 °F 35.6 °F 66% 29.83 in 10.0 mi WNW 11.5 mph 23.0 mph N/A   Clear
12:55 PM 46.4 °F 41.1 °F 33.8 °F 62% 29.82 in 10.0 mi WNW 11.5 mph 21.9 mph N/A   Clear
1:15 PM 46.4 °F 40.4 °F 33.8 °F 62% 29.82 in 10.0 mi WNW 13.8 mph 21.9 mph N/A   Clear
1:35 PM 46.4 °F 40.4 °F 32.0 °F 57% 29.82 in 10.0 mi NW 13.8 mph 21.9 mph N/A   Clear
1:55 PM 46.4 °F 40.7 °F 32.0 °F 57% 29.82 in 10.0 mi NW 12.7 mph 20.7 mph N/A   Clear
2:15 PM 46.4 °F 40.7 °F 32.0 °F 57% 29.82 in 10.0 mi NW 12.7 mph 21.9 mph N/A   Clear
2:35 PM 46.4 °F 40.7 °F 32.0 °F 57% 29.82 in 10.0 mi WNW 12.7 mph 24.2 mph N/A   Clear
2:55 PM 46.4 °F 40.7 °F 32.0 °F 57% 29.82 in 10.0 mi NW 12.7 mph 20.7 mph N/A   Clear
3:15 PM 46.4 °F 41.1 °F 30.2 °F 53% 29.83 in 10.0 mi NW 11.5 mph 21.9 mph N/A   Clear
3:35 PM 46.4 °F 41.9 °F 30.2 °F 53% 29.83 in 10.0 mi NW 9.2 mph 20.7 mph N/A   Clear
3:55 PM 46.4 °F 40.1 °F 30.2 °F 53% 29.84 in 10.0 mi NW 15.0 mph 20.7 mph N/A   Mostly Cloudy
4:15 PM 46.4 °F 41.5 °F 30.2 °F 53% 29.85 in 10.0 mi NW 10.4 mph 16.1 mph N/A   Scattered Clouds
4:35 PM 44.6 °F 38.8 °F 28.4 °F 53% 29.86 in 10.0 mi NW 11.5 mph 19.6 mph N/A   Clear
4:55 PM 44.6 °F 38.1 °F 28.4 °F 53% 29.87 in 10.0 mi NW 13.8 mph 17.3 mph N/A   Partly Cloudy
5:15 PM 42.8 °F 37.0 °F 28.4 °F 57% 29.88 in 10.0 mi NW 10.4 mph - N/A   Clear
5:35 PM 42.8 °F 37.0 °F 26.6 °F 53% 29.90 in 10.0 mi NW 10.4 mph 17.3 mph N/A   Clear
5:55 PM 42.8 °F 36.6 °F 24.8 °F 49% 29.91 in 10.0 mi NW 11.5 mph 20.7 mph N/A   Clear
6:15 PM 41.0 °F 34.7 °F 24.8 °F 53% 29.92 in 10.0 mi NW 10.4 mph 20.7 mph N/A   Clear
6:35 PM 39.2 °F 32.0 °F 24.8 °F 56% 29.93 in 10.0 mi NW 11.5 mph 21.9 mph N/A   Clear
6:55 PM 39.2 °F 31.6 °F 24.8 °F 56% 29.94 in 10.0 mi NW 12.7 mph 23.0 mph N/A   Clear
7:15 PM 39.2 °F 32.0 °F 21.2 °F 49% 29.95 in 10.0 mi NNW 11.5 mph 23.0 mph N/A   Clear
7:35 PM 37.4 °F 28.9 °F 23.0 °F 56% 29.97 in 10.0 mi NNW 13.8 mph 23.0 mph N/A   Clear
7:55 PM 37.4 °F 28.5 °F 21.2 °F 52% 29.98 in 10.0 mi NW 15.0 mph 24.2 mph N/A   Clear
8:15 PM 37.4 °F 29.3 °F 21.2 °F 52% 30.00 in 10.0 mi NNW 12.7 mph 26.5 mph N/A   Clear
8:35 PM 37.4 °F 29.3 °F 21.2 °F 52% 30.00 in 10.0 mi NNW 12.7 mph 19.6 mph N/A   Clear
8:55 PM 37.4 °F 29.8 °F 21.2 °F 52% 30.02 in 10.0 mi NW 11.5 mph 19.6 mph N/A   Clear
9:15 PM 35.6 °F 29.2 °F 21.2 °F 56% 30.03 in 10.0 mi NW 8.1 mph - N/A   Clear
9:35 PM 35.6 °F 26.6 °F 21.2 °F 56% 30.03 in 10.0 mi NW 13.8 mph 19.6 mph N/A   Clear
9:55 PM 35.6 °F 27.5 °F 21.2 °F 56% 30.03 in 10.0 mi NW 11.5 mph 23.0 mph N/A   Clear
10:15 PM 35.6 °F 26.6 °F 21.2 °F 56% 30.03 in 10.0 mi NW 13.8 mph 20.7 mph N/A   Clear
10:35 PM 35.6 °F 28.0 °F 21.2 °F 56% 30.04 in 10.0 mi NW 10.4 mph 20.7 mph N/A   Clear
10:55 PM 35.6 °F 27.1 °F 21.2 °F 56% 30.04 in 10.0 mi NW 12.7 mph 19.6 mph N/A   Clear
11:15 PM 35.6 °F 27.1 °F 21.2 °F 56% 30.04 in 10.0 mi WNW 12.7 mph 18.4 mph N/A   Clear
11:35 PM 35.6 °F 26.6 °F 21.2 °F 56% 30.04 in 10.0 mi NW 13.8 mph 18.4 mph N/A   Clear
11:55 PM 35.6 °F 27.1 °F 21.2 °F 56% 30.05 in 10.0 mi WNW 12.7 mph 18.4 mph N/A   Clear